2018-096B (43720 NORAD) Tracking and Keplerian Element Data

This shows tracking and keplerian element data for the satellite.

Feedback or suggestion? Click here.




ElementValue
Catalog43720
Name2018-096B
Epoch Orbit173
Epoch Day344.50843823
Epoch Year2018
RAAN49.5038
Inclination97.4835
Eccentricity0.0015782
Argument of Perigee281.4773
Mean Anonmoly78.4693
Mean Motion15.25664126
Decay Rate2.651E-05
L11 43720U 18096B 18344.50843823 .00002651 00000-0 10677-3 0 9991
L22 43720 97.4835 49.5038 0015782 281.4773 78.4693 15.25664126 1734

Live tracking and technical data element details for 2018-096B (NORAD 43720). 2018-096B can be tracked NOW for your location showing map with azimuth and elevation plus other details from your city location.

Track the satellite on the map from your city or location and see movement details for azimuth, elevation, latitude, longitude, range, height, and movement on the map or in text.







IsCatalogInMostPopularTable: catalog: 43720, numindb: 4
Update: records affected: 1



GetName: 43720 2018-096B

Hit Count: updated at: Tue, 11 Dec 2018 03:18:04 GMT